{"data":{"norad_id":52503,"intl_designator":"2022-049BE","name":"STARLINK-3861","alt_names":[],"object_type":"PAYLOAD","status":"ACTIVE","operator":null,"country":"US","launch_date":"2022-05-06","launch_site_code":"AFETR","launch_vehicle":null,"mission":null,"orbit_class":"UNKNOWN","rcs_meters":null,"size_class":null,"mass_kg":null,"dimensions":null,"purposes":["comms"],"wikipedia_slug":null,"has_3d_model":false,"image_url":null,"decayed_at":null,"tle_current":{"epoch":"2026-09-19T13:30:11.408256Z","epoch_age_seconds":144194,"freshness":"FRESH","line1":"1 52503U 22049BE  26262.56263204  .00001158  00000+0  44097-4 0  9990","line2":"2 52503  53.1598 239.9926 0001225  94.8151 265.2992 15.35407936241911","mean_motion":15.35407936,"eccentricity":0.0001225,"inclination_deg":53.1598,"raan_deg":239.9926,"arg_perigee_deg":94.8151,"mean_anomaly_deg":265.2992,"bstar":4.4097e-5,"rev_number":24191,"period_min":93.786150653321,"perigee_km":458.8714448317,"apogee_km":460.54671712154,"semimajor_km":6837.8460809766,"source":"CELESTRAK","updated_at":"2026-09-20T09:00:40.057687Z"}}}